Location: Maiden
(35.5760°N, 81.2120°W)
Time: 02:59:28
(UTC-04:00)

SJ-6B - Pass Details

Date: 02 August 2020
Orbit: 510 x 582 km, 97.6° (Epoch: 11 August)

Event Time Altitude Azimuth Distance (km) Brightness Sun altitude
Exits shadow 21:18:19 - 167° (SSE) 2,447 5.7 -10.1°
Reaches altitude 10° 21:19:39 10° 168° (SSE) 1,890 5.2 -10.4°
Maximum altitude 21:23:46 88° 262° (W) 584 2.9 -11.1°
Drops below altitude 10° 21:27:52 10° 348° (NNW) 1,885 6.2 -11.8°
Sets 21:30:01 0° 348° (NNW) 2,779 7.1 -12.2°
